Location: Unspecified
(0.0000°N, 0.0000°E)
Time: 11:04:44
(UTC+00:00)

Explorer 11/Cluster Stage 4 - Pass Details

Date: 06 November 2024
Orbit: 464 x 1202 km, 28.8° (Epoch: 06 December)

Event Time Altitude Azimuth Distance (km) Brightness Sun altitude
Exits shadow 05:06:53 10° 303° (WNW) 1,756 7.8 -8.8°
Maximum altitude 05:08:34 13° 329° (NNW) 1,561 7.7 -8.4°
Drops below altitude 10° 05:10:15 10° 356° (N) 1,670 8.1 -8.0°
Sets 05:13:27 0° 27° (NNE) 2,485 9.3 -7.3°
